EN

Hourly Weather Lahva

Today, 30 July, Friday

Time Temperature Precipitation Wind Pressure Humidity
00:00 +19°C° 0 mm 2 mps 746 mmHg 89%
01:00 +19°C° 0 mm 2 mps 746 mmHg 89%
02:00 +18°C° 0 mm 2 mps 746 mmHg 89%
03:00 +18°C° 0 mm 2 mps 746 mmHg 89%
04:00 +18°C° 0 mm 2 mps 746 mmHg 89%
05:00 +18°C° 0 mm 3 mps 746 mmHg 89%
06:00 +19°C° 0 mm 3 mps 746 mmHg 82%
07:00 +21°C° 0 mm 3 mps 746 mmHg 74%
08:00 +24°C° 0 mm 3 mps 746 mmHg 61%
09:00 +26°C° 0 mm 4 mps 746 mmHg 54%
10:00 +27°C° 0 mm 4 mps 746 mmHg 47%
11:00 +28°C° 0 mm 4 mps 746 mmHg 40%
12:00 +29°C° 0 mm 5 mps 746 mmHg 39%
13:00 +29°C° 0 mm 5 mps 745 mmHg 38%
14:00 +29°C° 0 mm 5 mps 745 mmHg 37%
15:00 +29°C° 0 mm 5 mps 745 mmHg 39%
16:00 +29°C° 0 mm 4 mps 745 mmHg 41%
17:00 +28°C° 0 mm 4 mps 745 mmHg 43%
18:00 +27°C° 0 mm 3 mps 745 mmHg 48%
19:00 +26°C° 0 mm 2 mps 744 mmHg 53%
20:00 +24°C° 0 mm 2 mps 744 mmHg 58%
21:00 +23°C° 0 mm 2 mps 745 mmHg 62%
22:00 +21°C° 0 mm 2 mps 745 mmHg 66%
23:00 +20°C° 0 mm 2 mps 745 mmHg 70%

Tomorrow, 31 July, Saturday

Time Temperature Precipitation Wind Pressure Humidity
00:00 +19°C° 0 mm 2 mps 745 mmHg 71%
01:00 +19°C° 0 mm 2 mps 745 mmHg 71%
02:00 +18°C° 0 mm 2 mps 745 mmHg 72%
03:00 +18°C° 0 mm 2 mps 745 mmHg 74%
04:00 +17°C° 0 mm 2 mps 745 mmHg 75%
05:00 +17°C° 0 mm 2 mps 745 mmHg 76%
06:00 +19°C° 0 mm 2 mps 745 mmHg 70%
07:00 +21°C° 0 mm 2 mps 745 mmHg 64%
08:00 +24°C° 0 mm 2 mps 746 mmHg 57%
09:00 +26°C° 0 mm 2 mps 746 mmHg 52%
10:00 +28°C° 0 mm 2 mps 745 mmHg 47%
11:00 +29°C° 0 mm 3 mps 745 mmHg 42%
12:00 +30°C° 0 mm 3 mps 745 mmHg 40%
13:00 +31°C° 0 mm 3 mps 745 mmHg 38%
14:00 +33°C° 0 mm 3 mps 745 mmHg 36%
15:00 +33°C° 0 mm 3 mps 744 mmHg 37%
16:00 +32°C° 0 mm 2 mps 744 mmHg 37%
17:00 +32°C° 0 mm 2 mps 744 mmHg 38%
18:00 +30°C° 0 mm 2 mps 744 mmHg 46%
19:00 +27°C° 0 mm 3 mps 744 mmHg 53%
20:00 +25°C° 0 mm 3 mps 744 mmHg 61%
21:00 +22°C° 0.9 mm 3 mps 744 mmHg 72%
22:00 +20°C° 0.9 mm 3 mps 745 mmHg 83%
23:00 +19°C° 0.9 mm 3 mps 745 mmHg 95%

Day after tomorrow, 1 August, Sunday

Time Temperature Precipitation Wind Pressure Humidity
00:00 +19°C° 0.6 mm 3 mps 745 mmHg 96%
01:00 +19°C° 0.6 mm 2 mps 745 mmHg 96%
02:00 +19°C° 0.6 mm 2 mps 745 mmHg 97%
03:00 +19°C° 0.7 mm 2 mps 745 mmHg 97%
04:00 +19°C° 0.7 mm 2 mps 745 mmHg 97%
05:00 +19°C° 0.7 mm 2 mps 745 mmHg 97%
06:00 +20°C° 0 mm 2 mps 746 mmHg 93%
07:00 +20°C° 0 mm 2 mps 746 mmHg 88%
08:00 +21°C° 0 mm 2 mps 746 mmHg 83%
09:00 +24°C° 0 mm 2 mps 746 mmHg 73%
10:00 +26°C° 0 mm 2 mps 746 mmHg 62%
11:00 +27°C° 0 mm 2 mps 746 mmHg 51%
12:00 +28°C° 0 mm 2 mps 746 mmHg 47%
13:00 +29°C° 0 mm 2 mps 746 mmHg 43%
14:00 +30°C° 0 mm 2 mps 746 mmHg 39%
15:00 +30°C° 0 mm 2 mps 745 mmHg 39%
16:00 +30°C° 0 mm 1 mps 745 mmHg 40%
17:00 +29°C° 0 mm 1 mps 745 mmHg 41%
18:00 +28°C° 0 mm 1 mps 745 mmHg 47%
19:00 +26°C° 0 mm 2 mps 744 mmHg 52%
20:00 +24°C° 0 mm 2 mps 744 mmHg 58%
21:00 +23°C° 0.1 mm 2 mps 744 mmHg 63%
22:00 +21°C° 0.1 mm 2 mps 744 mmHg 68%
23:00 +21°C° 0.1 mm 3 mps 744 mmHg 72%

2 August, Monday

Time Temperature Precipitation Wind Pressure Humidity
00:00 +20°C° 3.9 mm 3 mps 744 mmHg 81%
01:00 +19°C° 3.9 mm 3 mps 743 mmHg 89%
02:00 +18°C° 3.9 mm 3 mps 743 mmHg 98%
03:00 +18°C° 0.7 mm 3 mps 743 mmHg 98%
04:00 +18°C° 0.7 mm 3 mps 742 mmHg 98%
05:00 +18°C° 0.7 mm 2 mps 742 mmHg 98%
06:00 +19°C° 0 mm 3 mps 742 mmHg 95%
07:00 +21°C° 0 mm 4 mps 742 mmHg 91%
08:00 +22°C° 0 mm 4 mps 742 mmHg 87%
09:00 +22°C° 0 mm 5 mps 742 mmHg 82%
10:00 +23°C° 0 mm 5 mps 742 mmHg 76%
11:00 +25°C° 0 mm 5 mps 742 mmHg 70%
12:00 +23°C° 0.1 mm 5 mps 743 mmHg 70%
13:00 +23°C° 0.1 mm 5 mps 743 mmHg 70%
14:00 +22°C° 0.1 mm 5 mps 743 mmHg 70%
15:00 +21°C° 0.1 mm 5 mps 743 mmHg 75%
16:00 +20°C° 0.1 mm 5 mps 744 mmHg 81%
17:00 +17°C° 0.1 mm 5 mps 744 mmHg 86%
18:00 +18°C° 0 mm 4 mps 744 mmHg 87%
19:00 +17°C° 0 mm 3 mps 745 mmHg 89%
20:00 +17°C° 0 mm 3 mps 745 mmHg 90%
21:00 +17°C° 0 mm 3 mps 745 mmHg 90%
22:00 +17°C° 0 mm 2 mps 745 mmHg 89%
23:00 +17°C° 0 mm 2 mps 746 mmHg 89%

3 August, Tuesday

Time Temperature Precipitation Wind Pressure Humidity
00:00 +16°C° 0.1 mm 2 mps 746 mmHg 91%
01:00 +16°C° 0.1 mm 2 mps 746 mmHg 93%
02:00 +15°C° 0.1 mm 2 mps 746 mmHg 94%
03:00 +15°C° 0 mm 2 mps 746 mmHg 95%
04:00 +15°C° 0 mm 2 mps 747 mmHg 96%
05:00 +14°C° 0 mm 2 mps 747 mmHg 97%
06:00 +16°C° 0 mm 3 mps 747 mmHg 90%
07:00 +17°C° 0 mm 3 mps 748 mmHg 84%
08:00 +19°C° 0 mm 3 mps 748 mmHg 77%
09:00 +20°C° 0.1 mm 3 mps 748 mmHg 69%
10:00 +21°C° 0.1 mm 4 mps 748 mmHg 62%
11:00 +22°C° 0.1 mm 4 mps 749 mmHg 54%
12:00 +22°C° 0 mm 4 mps 749 mmHg 52%
13:00 +22°C° 0 mm 4 mps 749 mmHg 50%
14:00 +22°C° 0 mm 4 mps 749 mmHg 48%
15:00 +22°C° 0 mm 4 mps 749 mmHg 50%
16:00 +22°C° 0 mm 3 mps 749 mmHg 52%
17:00 +21°C° 0 mm 3 mps 749 mmHg 53%
18:00 +20°C° 0 mm 3 mps 749 mmHg 59%
19:00 +18°C° 0 mm 2 mps 749 mmHg 64%
20:00 +17°C° 0 mm 2 mps 750 mmHg 70%
21:00 +16°C° 0 mm 2 mps 750 mmHg 71%
22:00 +16°C° 0 mm 1 mps 750 mmHg 72%
23:00 +15°C° 0 mm 1 mps 750 mmHg 73%

4 August, Wednesday

Time Temperature Precipitation Wind Pressure Humidity
00:00 +15°C° 0 mm 1 mps 750 mmHg 75%
01:00 +14°C° 0 mm 1 mps 750 mmHg 77%
02:00 +13°C° 0 mm 0 mps 750 mmHg 79%
03:00 +14°C° 0 mm 1 mps 750 mmHg 79%
04:00 +14°C° 0 mm 1 mps 750 mmHg 78%
05:00 +14°C° 0 mm 1 mps 750 mmHg 78%
06:00 +16°C° 0 mm 1 mps 750 mmHg 72%
07:00 +18°C° 0 mm 2 mps 751 mmHg 66%
08:00 +20°C° 0 mm 2 mps 751 mmHg 60%
09:00 +21°C° 0 mm 2 mps 751 mmHg 55%
10:00 +24°C° 0 mm 2 mps 750 mmHg 50%
11:00 +25°C° 0 mm 3 mps 750 mmHg 44%
12:00 +26°C° 0 mm 3 mps 750 mmHg 44%
13:00 +26°C° 0 mm 2 mps 749 mmHg 44%
14:00 +27°C° 0 mm 2 mps 749 mmHg 44%
15:00 +26°C° 0.1 mm 2 mps 748 mmHg 49%
16:00 +25°C° 0.1 mm 3 mps 748 mmHg 55%
17:00 +24°C° 0.1 mm 3 mps 748 mmHg 61%
18:00 +21°C° 1.7 mm 3 mps 748 mmHg 72%
19:00 +19°C° 1.7 mm 3 mps 748 mmHg 83%
20:00 +17°C° 1.7 mm 3 mps 748 mmHg 94%
21:00 +17°C° 0.8 mm 3 mps 748 mmHg 94%
22:00 +17°C° 0.8 mm 4 mps 747 mmHg 94%
23:00 +17°C° 0.8 mm 4 mps 747 mmHg 95%
Show more